When you browse on this site, cookies collect data to enhance your experience and personalize the content and advertising you see.
Visit our Privacy Policy to learn more. By continuing to use the site, you agree to this use of cookies and data.
  • In Austria
  • List of Countries
  • For 7 days
  • Water Temperature
  • Satellite Maps
  • Weather Map
  • News
  • Weather Widgets
  • user-avatar
    Login

    Hourly Weather Tottori

    Today, 23 April, Tuesday

    Time Temperature Precipitation Wind Pressure Humidity
    00:00 +11°C° 0 mm 1 mps 731 mmHg 75%
    01:00 +11°C° 0 mm 1 mps 731 mmHg 72%
    02:00 +11°C° 0 mm 1 mps 731 mmHg 68%
    03:00 +11°C° 0 mm 1 mps 731 mmHg 64%
    04:00 +12°C° 0 mm 1 mps 731 mmHg 62%
    05:00 +12°C° 0 mm 1 mps 731 mmHg 59%
    06:00 +13°C° 0 mm 1 mps 731 mmHg 56%
    07:00 +15°C° 0 mm 1 mps 731 mmHg 52%
    08:00 +18°C° 0 mm 2 mps 732 mmHg 48%
    09:00 +21°C° 0 mm 2 mps 732 mmHg 43%
    10:00 +23°C° 0 mm 2 mps 732 mmHg 42%
    11:00 +24°C° 0 mm 3 mps 732 mmHg 41%
    12:00 +25°C° 0 mm 3 mps 732 mmHg 40%
    13:00 +25°C° 0 mm 4 mps 731 mmHg 45%
    14:00 +25°C° 0 mm 4 mps 731 mmHg 51%
    15:00 +25°C° 0 mm 5 mps 731 mmHg 57%
    16:00 +22°C° 0 mm 4 mps 731 mmHg 65%
    17:00 +21°C° 0 mm 4 mps 731 mmHg 73%
    18:00 +19°C° 0 mm 4 mps 730 mmHg 81%
    19:00 +19°C° 0.1 mm 3 mps 731 mmHg 84%
    20:00 +18°C° 0.1 mm 3 mps 731 mmHg 87%
    21:00 +17°C° 0.1 mm 3 mps 731 mmHg 91%
    22:00 +17°C° 1 mm 3 mps 731 mmHg 92%
    23:00 +17°C° 1 mm 3 mps 731 mmHg 93%

    Tomorrow, 24 April, Wednesday

    Time Temperature Precipitation Wind Pressure Humidity
    00:00 +17°C° 1 mm 4 mps 731 mmHg 94%
    01:00 +15°C° 0.6 mm 4 mps 731 mmHg 94%
    02:00 +15°C° 0.6 mm 4 mps 730 mmHg 94%
    03:00 +15°C° 0.6 mm 4 mps 730 mmHg 94%
    04:00 +15°C° 1.3 mm 4 mps 730 mmHg 94%
    05:00 +15°C° 1.3 mm 5 mps 729 mmHg 93%
    06:00 +15°C° 1.3 mm 5 mps 729 mmHg 93%
    07:00 +15°C° 1 mm 5 mps 729 mmHg 93%
    08:00 +15°C° 1 mm 6 mps 728 mmHg 93%
    09:00 +15°C° 1 mm 7 mps 728 mmHg 93%
    10:00 +16°C° 0.2 mm 7 mps 728 mmHg 91%
    11:00 +17°C° 0.2 mm 7 mps 728 mmHg 88%
    12:00 +18°C° 0.2 mm 7 mps 727 mmHg 86%
    13:00 +18°C° 0.2 mm 7 mps 727 mmHg 87%
    14:00 +17°C° 0.2 mm 6 mps 726 mmHg 88%
    15:00 +17°C° 0.2 mm 6 mps 725 mmHg 90%
    16:00 +17°C° 0.3 mm 6 mps 725 mmHg 91%
    17:00 +17°C° 0.3 mm 5 mps 724 mmHg 92%
    18:00 +17°C° 0.3 mm 5 mps 724 mmHg 93%
    19:00 +18°C° 0.5 mm 4 mps 724 mmHg 94%
    20:00 +18°C° 0.5 mm 4 mps 724 mmHg 95%
    21:00 +18°C° 0.5 mm 3 mps 724 mmHg 96%
    22:00 +18°C° 0.6 mm 3 mps 724 mmHg 96%
    23:00 +18°C° 0.6 mm 2 mps 724 mmHg 97%

    Day after tomorrow, 25 April, Thursday

    Time Temperature Precipitation Wind Pressure Humidity
    00:00 +19°C° 0.6 mm 1 mps 724 mmHg 98%
    01:00 +19°C° 0.3 mm 1 mps 723 mmHg 98%
    02:00 +19°C° 0.3 mm 1 mps 723 mmHg 98%
    03:00 +16°C° 0.3 mm 0 mps 723 mmHg 98%
    04:00 +16°C° 0 mm 0 mps 723 mmHg 98%
    05:00 +16°C° 0 mm 0 mps 723 mmHg 98%
    06:00 +16°C° 0 mm 0 mps 723 mmHg 98%
    07:00 +19°C° 0 mm 1 mps 723 mmHg 94%
    08:00 +20°C° 0 mm 1 mps 723 mmHg 90%
    09:00 +21°C° 0 mm 1 mps 723 mmHg 85%
    10:00 +22°C° 0.2 mm 1 mps 723 mmHg 82%
    11:00 +21°C° 0.2 mm 2 mps 723 mmHg 79%
    12:00 +21°C° 0.2 mm 2 mps 723 mmHg 76%
    13:00 +21°C° 0.1 mm 2 mps 723 mmHg 79%
    14:00 +20°C° 0.1 mm 2 mps 723 mmHg 82%
    15:00 +19°C° 0.1 mm 3 mps 722 mmHg 85%
    16:00 +18°C° 0 mm 3 mps 722 mmHg 87%
    17:00 +17°C° 0 mm 2 mps 722 mmHg 89%
    18:00 +15°C° 0 mm 2 mps 722 mmHg 92%
    19:00 +15°C° 0 mm 2 mps 723 mmHg 92%
    20:00 +14°C° 0 mm 2 mps 723 mmHg 93%
    21:00 +14°C° 0 mm 2 mps 723 mmHg 94%
    22:00 +13°C° 0 mm 2 mps 723 mmHg 94%
    23:00 +13°C° 0 mm 2 mps 723 mmHg 94%

    26 April, Friday

    Time Temperature Precipitation Wind Pressure Humidity
    00:00 +13°C° 0 mm 2 mps 723 mmHg 93%
    01:00 +13°C° 0.1 mm 2 mps 723 mmHg 94%
    02:00 +13°C° 0.1 mm 2 mps 723 mmHg 95%
    03:00 +13°C° 0.1 mm 2 mps 723 mmHg 95%
    04:00 +12°C° 0.1 mm 2 mps 723 mmHg 95%
    05:00 +12°C° 0.1 mm 2 mps 723 mmHg 95%
    06:00 +12°C° 0.1 mm 2 mps 723 mmHg 94%
    07:00 +12°C° 0.1 mm 2 mps 724 mmHg 93%
    08:00 +10°C° 0.1 mm 3 mps 724 mmHg 92%
    09:00 +10°C° 0.1 mm 3 mps 725 mmHg 91%
    10:00 +10°C° 0.1 mm 3 mps 725 mmHg 90%
    11:00 +10°C° 0.1 mm 3 mps 726 mmHg 89%
    12:00 +10°C° 0.1 mm 3 mps 726 mmHg 88%
    13:00 +10°C° 0 mm 4 mps 726 mmHg 85%
    14:00 +10°C° 0 mm 4 mps 726 mmHg 82%
    15:00 +10°C° 0 mm 4 mps 726 mmHg 79%
    16:00 +10°C° 0 mm 4 mps 727 mmHg 81%
    17:00 +8°C° 0 mm 4 mps 727 mmHg 82%
    18:00 +8°C° 0 mm 3 mps 728 mmHg 83%
    19:00 +8°C° 0 mm 3 mps 728 mmHg 84%
    20:00 +7°C° 0 mm 3 mps 729 mmHg 84%
    21:00 +7°C° 0 mm 3 mps 729 mmHg 84%
    22:00 +7°C° 0 mm 3 mps 729 mmHg 84%
    23:00 +5°C° 0 mm 3 mps 729 mmHg 85%

    27 April, Saturday

    Time Temperature Precipitation Wind Pressure Humidity
    00:00 +5°C° 0 mm 3 mps 730 mmHg 85%
    01:00 +5°C° 0 mm 3 mps 730 mmHg 84%
    02:00 +5°C° 0 mm 3 mps 730 mmHg 84%
    03:00 +5°C° 0 mm 3 mps 730 mmHg 83%
    04:00 +5°C° 0 mm 3 mps 730 mmHg 83%
    05:00 +5°C° 0 mm 3 mps 731 mmHg 83%
    06:00 +5°C° 0 mm 3 mps 731 mmHg 83%
    07:00 +7°C° 0 mm 3 mps 732 mmHg 74%
    08:00 +8°C° 0 mm 4 mps 733 mmHg 66%
    09:00 +10°C° 0 mm 4 mps 733 mmHg 58%
    10:00 +11°C° 0 mm 4 mps 733 mmHg 54%
    11:00 +12°C° 0 mm 4 mps 733 mmHg 51%
    12:00 +12°C° 0 mm 4 mps 733 mmHg 47%
    13:00 +12°C° 0 mm 4 mps 733 mmHg 47%
    14:00 +12°C° 0 mm 4 mps 733 mmHg 46%
    15:00 +12°C° 0 mm 4 mps 733 mmHg 46%
    16:00 +11°C° 0 mm 3 mps 733 mmHg 51%
    17:00 +10°C° 0 mm 3 mps 734 mmHg 57%
    18:00 +9°C° 0 mm 2 mps 734 mmHg 62%
    19:00 +7°C° 0 mm 2 mps 734 mmHg 69%
    20:00 +6°C° 0 mm 2 mps 735 mmHg 77%
    21:00 +5°C° 0 mm 1 mps 735 mmHg 85%
    22:00 +5°C° 0 mm 1 mps 735 mmHg 86%
    23:00 +5°C° 0 mm 1 mps 735 mmHg 87%

    28 April, Sunday

    Time Temperature Precipitation Wind Pressure Humidity
    00:00 +4°C° 0 mm 1 mps 735 mmHg 88%
    01:00 +4°C° 0 mm 1 mps 735 mmHg 88%
    02:00 +4°C° 0 mm 1 mps 735 mmHg 88%
    03:00 +4°C° 0 mm 1 mps 735 mmHg 88%
    04:00 +4°C° 0 mm 1 mps 735 mmHg 85%
    05:00 +4°C° 0 mm 1 mps 735 mmHg 83%
    06:00 +5°C° 0 mm 1 mps 735 mmHg 80%
    07:00 +8°C° 0 mm 1 mps 736 mmHg 67%
    08:00 +12°C° 0 mm 1 mps 736 mmHg 53%
    09:00 +14°C° 0 mm 0 mps 737 mmHg 40%
    10:00 +15°C° 0 mm 1 mps 736 mmHg 39%
    11:00 +15°C° 0 mm 1 mps 736 mmHg 38%
    12:00 +16°C° 0 mm 2 mps 735 mmHg 37%
    13:00 +16°C° 0 mm 2 mps 735 mmHg 38%
    14:00 +16°C° 0 mm 2 mps 735 mmHg 39%
    15:00 +16°C° 0 mm 1 mps 734 mmHg 40%
    16:00 +14°C° 0.1 mm 1 mps 734 mmHg 49%
    17:00 +12°C° 0.1 mm 1 mps 734 mmHg 59%
    18:00 +11°C° 0.1 mm 1 mps 734 mmHg 68%
    19:00 +10°C° 0.1 mm 1 mps 734 mmHg 71%
    20:00 +9°C° 0.1 mm 2 mps 734 mmHg 73%
    21:00 +8°C° 0.1 mm 2 mps 734 mmHg 76%
    22:00 +9°C° 0 mm 2 mps 734 mmHg 78%
    23:00 +9°C° 0 mm 2 mps 734 mmHg 79%
    Show more